Regional Weather Roundup
Issued by NWS

Home | Current Version | Previous Version | Graphics & Text | Print | Product List | Glossary On
Versions: 1 2 3 4 5 6 7 8 9 10 11 12 13 14 15 16 17 18 19 20 21 22 23 24 25 26 27 28 29 30 31 32 33 34 35 36 37 38 39 40 41 42 43 44 45 46 47 48 49 50
000
ASUS43 KBIS 260010
RWRND

NORTH DAKOTA REGIONAL WEATHER ROUNDUP
NATIONAL WEATHER SERVICE BISMARCK ND
700 PM CDT SAT APR 25 2015

NOTE: "FAIR" INDICATES FEW OR NO CLOUDS BELOW 12,000 FEET WITH NO
SIGNIFICANT WEATHER AND/OR OBSTRUCTIONS TO VISIBILITY.


NDZ001>003-009>011-017-260100-
NORTHWEST NORTH DAKOTA

CITY           SKY/WX    TMP DP  RH WIND       PRES   REMARKS
WILLISTON      CLOUDY    55  43  63 SE14      29.77R
6HR MIN TEMP:  50; 6HR MAX TEMP:  57;

MINOT          CLOUDY    56  41  57 SE10      29.83R
MINOT AFB      CLOUDY    56  45  67 SE16      29.82R
$$

NDZ018>021-031>035-040>046-260100-
SOUTHWEST NORTH DAKOTA

CITY           SKY/WX    TMP DP  RH WIND       PRES   REMARKS
BISMARCK       CLOUDY    49  42  77 E12       29.85R
6HR MIN TEMP:  48; 6HR MAX TEMP:  50;

DICKINSON      CLOUDY    48  42  80 S13       29.79R
GARRISON         N/A     51  42  71 SE15      29.82R
6HR MIN TEMP:  51; 6HR MAX TEMP:  56; 6HR PCP:  0.01;

HETTINGER ARPT CLOUDY    49  44  83 SE7       29.82R
$$

NDZ004>008-012>016-024-026-027-054-260100-
NORTHEAST NORTH DAKOTA

CITY           SKY/WX    TMP DP  RH WIND       PRES   REMARKS
GRAND FORKS    PTSUNNY   62  38  40 S7        29.90R
GRND FRKS AFB  MOSUNNY   61  37  41 S10       29.90R
DEVILS LAKE    CLOUDY    55  41  58 SE10      29.89R
$$

NDZ022-023-025-028>030-036>039-047>053-260100-
SOUTHEAST NORTH DAKOTA

CITY           SKY/WX    TMP DP  RH WIND       PRES   REMARKS
FARGO          SUNNY     62  37  39 SE9       29.89R
6HR MIN TEMP:  49; 6HR MAX TEMP:  63;

JAMESTOWN      CLOUDY    51  41  68 SE14      29.88R
$$




USA.gov is the U.S. government's official web portal to all federal, state and local government web resources and services.